Volver al catálogo

STARLINK-38225

ActivoComunicacionesSSO
NORAD 100194·PAYLOAD·🇺🇸 United States

Lanzado Aug 1, 2026 desde Vandenberg Space Force Base

Loading…

Próximos Pases (próximas 24 horas)

TLE

ActualizadoSource: Space-Track

Época: Sep 14, 2026, 12:13 UTC

1 A0194U 26175R   26257.50937549  .00181629  00000-0  11901-2 0  9990
2 A0194  97.2829  99.6565 0001592  92.2083 267.9365 15.75243351  8231

Sigue STARLINK-38225 en tiempo real con AllMySat

Download on the App Store